Simultaneous Nadir Overpasses (SNOs) Predictions

Prediction of SNOs between GOES-16 and AQUA Satellite Orbit:

Table of predicted SNOs for the next 14.0 days since TLE Epoch: 11/11/2017
Index Date Time (GOES-16) GOES-16 Lat,Lon AQUA Lat,Lon Distance(km) Time Diff (sec)
1 11/12/2017 07:25:02 -0.00, -89.28 -0.31, -87.79 170.08 80
2 11/12/2017 19:46:27 0.00, -89.31 -0.77, -92.98 418.06 80
3 11/14/2017 19:34:16 0.00, -89.32 -0.17, -90.02 80.75 80
4 11/16/2017 19:24:46 0.00, -89.33 0.49, -87.07 257.09 80
5 11/17/2017 07:46:02 -0.00, -89.32 0.59, -92.23 330.56 80
6 11/19/2017 07:31:11 -0.01, -89.34 -0.01, -89.27 7.54 80
7 11/21/2017 07:19:00 -0.01, -89.36 -0.62, -86.31 345.84 80
8 11/21/2017 19:40:25 0.01, -89.38 -0.42, -91.52 242.18 80
9 11/23/2017 19:30:54 0.01, -89.41 0.20, -88.56 96.73 80
10 11/24/2017 07:52:10 -0.01, -89.40 0.89, -93.72 490.22 80




NCC Satellite Simultaneous Nadir Overpasses (SNOs) Prediction Service
